Weather History for Punta Gorda, FL

Change the Weather History Date:

Thursday, November 15, 2012

  Actual Average Record
Temperature  
Mean Temperature 70 °F -  
Max Temperature 79 °F 78 °F 86 °F (2006)
Min Temperature 62 °F 57 °F 52 °F (2010)
Cooling Degree Days 6    
Growing Degree Days 20 (Base 50)    
Moisture  
Dew Point 63 °F    
Average Humidity 86    
Maximum Humidity 100    
Minimum Humidity 58    
Precipitation  
Precipitation 0.00 in - - ()
Sea Level Pressure  
Sea Level Pressure 30.12 in    
Wind  
Wind Speed 6 mph (NNE)    
Max Wind Speed 10 mph    
Max Gust Speed -    
Visibility 6 miles    
Events Fog    
Averages and records for this station are not official NWS values.
T = Trace of Precipitation, MM = Missing Value Source: NWS Daily Summary

Daily Weather History Graph

Daily Weather History Graph

Search for Another Location

Airport:

Trip Planner

Search our weather history database for the weather conditions in past years. The results will help you decide how hot, cold, wet, or windy it might be!

Date:

Astronomy

Nov. 15, 2012 Rise Set
Actual Time 6:48 AM EST 5:36 PM EST
Civil Twilight 6:23 AM EST 6:01 PM EST
Nautical Twilight 5:55 AM EST 6:29 PM EST
Astronomical Twilight 5:27 AM EST 6:57 PM EST
Moon 8:36 AM EST (11/15) 7:32 PM EST (11/15)
Length of Visible Light 11h 38m
Length of Day
10h 48m
Waxing Crescent, 5% of the Moon is Illuminated
Nov 15
Waxing Crescent
Nov 20
First Quarter
Nov 28
Full
Dec 6
Last Quarter
Dec 13
New

Hourly Weather History & Observations

Time (EST) Temp. Dew Point Humidity Pressure Visibility Wind Dir Wind Speed Gust Speed Precip Events Conditions
12:53 AM 64.9 °F 63.0 °F 93% 30.13 in 10.0 mi NNE 3.5 mph - N/A   Clear
1:53 AM 63.0 °F 61.0 °F 93% 30.11 in 10.0 mi NNE 3.5 mph - N/A   Clear
2:21 AM 62.6 °F 60.8 °F 94% 30.10 in 8.0 mi NE 4.6 mph - N/A   Scattered Clouds
2:30 AM 64.4 °F 62.6 °F 94% 30.10 in 8.0 mi NE 4.6 mph - N/A   Mostly Cloudy
2:37 AM 64.4 °F 62.6 °F 94% 30.10 in 2.5 mi NE 5.8 mph - N/A   Mostly Cloudy
2:43 AM 64.4 °F 62.6 °F 94% 30.09 in 0.8 mi NE 6.9 mph - N/A   Overcast
2:53 AM 64.0 °F 63.0 °F 96% 30.10 in 0.5 mi NE 8.1 mph - N/A Fog Fog
3:53 AM 64.9 °F 64.0 °F 97% 30.09 in 0.5 mi NE 5.8 mph - N/A Fog Fog
4:14 AM 64.4 °F 64.4 °F 100% 30.09 in 1.0 mi NE 4.6 mph - N/A   Mist
4:37 AM 64.4 °F 64.4 °F 100% 30.09 in 0.8 mi ENE 6.9 mph - N/A   Mist
4:53 AM 64.9 °F 64.0 °F 97% 30.09 in 0.8 mi ENE 5.8 mph - N/A   Mist
5:53 AM 64.9 °F 63.0 °F 93% 30.11 in 0.5 mi NE 4.6 mph - N/A Fog Fog
6:53 AM 64.0 °F 63.0 °F 96% 30.12 in 0.2 mi NE 4.6 mph - N/A Fog Fog
7:53 AM 64.9 °F 64.0 °F 97% 30.14 in 0.2 mi NNE 5.8 mph - N/A Fog Fog
8:53 AM 66.0 °F 64.0 °F 93% 30.15 in 0.8 mi North 5.8 mph - N/A   Mist
9:32 AM 64.4 °F 64.4 °F 100% 30.16 in 2.0 mi NNE 8.1 mph - N/A   Overcast
9:40 AM 66.2 °F 64.4 °F 94% 30.16 in 1.0 mi NNE 6.9 mph - N/A   Overcast
9:53 AM 66.0 °F 64.0 °F 93% 30.17 in 1.0 mi North 8.1 mph - N/A   Overcast
10:00 AM 66.2 °F 64.4 °F 94% 30.17 in 2.0 mi NNE 6.9 mph - N/A   Overcast
10:09 AM 66.2 °F 64.4 °F 94% 30.17 in 4.0 mi North 10.4 mph - N/A   Overcast
10:53 AM 70.0 °F 64.0 °F 81% 30.17 in 10.0 mi NE 8.1 mph - N/A   Overcast
11:53 AM 73.9 °F 64.9 °F 73% 30.14 in 10.0 mi North 6.9 mph - N/A   Mostly Cloudy
12:05 PM 73.4 °F 64.4 °F 73% 30.14 in 10.0 mi NNW 8.1 mph - N/A   Mostly Cloudy
12:19 PM 75.2 °F 64.4 °F 69% 30.13 in 10.0 mi North 6.9 mph - N/A   Scattered Clouds
12:51 PM 75.2 °F 64.4 °F 69% 30.12 in 10.0 mi NNW 8.1 mph - N/A   Mostly Cloudy
12:53 PM 75.9 °F 66.0 °F 71% 30.12 in 10.0 mi North 8.1 mph - N/A   Mostly Cloudy
1:16 PM 78.8 °F 66.2 °F 65% 30.11 in 10.0 mi Variable 6.9 mph - N/A   Scattered Clouds
1:29 PM 77.0 °F 64.4 °F 65% 30.10 in 10.0 mi North 6.9 mph - N/A   Mostly Cloudy
1:53 PM 78.1 °F 64.9 °F 64% 30.10 in 10.0 mi NNW 6.9 mph - N/A   Scattered Clouds
2:53 PM 78.1 °F 64.0 °F 62% 30.09 in 10.0 mi NW 5.8 mph - N/A   Partly Cloudy
3:53 PM 79.0 °F 63.0 °F 58% 30.08 in 10.0 mi North 3.5 mph - N/A   Clear
4:53 PM 75.0 °F 64.0 °F 69% 30.09 in 10.0 mi NNW 10.4 mph - N/A   Clear
5:53 PM 71.1 °F 63.0 °F 75% 30.10 in 10.0 mi North 6.9 mph - N/A   Clear
6:53 PM 68.0 °F 62.1 °F 81% 30.12 in 10.0 mi North 6.9 mph - N/A   Clear
7:53 PM 66.9 °F 62.1 °F 84% 30.13 in 7.0 mi North 8.1 mph - N/A   Clear
8:53 PM 64.9 °F 62.1 °F 90% 30.14 in 6.0 mi NNE 5.8 mph - N/A   Clear
9:40 PM 64.4 °F 62.6 °F 94% 30.13 in 5.0 mi NE 6.9 mph - N/A   Mostly Cloudy
9:53 PM 64.0 °F 62.1 °F 93% 30.14 in 6.0 mi NE 5.8 mph - N/A   Mostly Cloudy
10:39 PM 66.2 °F 62.6 °F 88% 30.15 in 9.0 mi NE 6.9 mph - N/A   Overcast
10:51 PM 66.2 °F 62.6 °F 88% 30.15 in 10.0 mi NE 5.8 mph - N/A   Overcast
10:53 PM 66.0 °F 62.1 °F 87% 30.15 in 10.0 mi NE 5.8 mph - N/A   Overcast
11:35 PM 66.2 °F 62.6 °F 88% 30.15 in 9.0 mi NE 6.9 mph - N/A   Overcast
11:53 PM 66.0 °F 63.0 °F 90% 30.14 in 6.0 mi NE 5.8 mph - N/A   Overcast